ONEWEB-0710 (55173 NORAD) Tracking and Keplerian Element Data

This shows tracking and keplerian element data for the satellite.

Feedback or suggestion? Click here.




ElementValue
Catalog55173
NameONEWEB-0710
Epoch Orbit1120
Epoch Day84.91597179
Epoch Year2023
RAAN253.6399
Inclination86.6237
Eccentricity0.0013038
Argument of Perigee334.0791
Mean Anonmoly25.9767
Mean Motion14.65785488
Decay Rate1.739E-05
L11 55173U 23004AK 23084.91597179 .00001739 00000+0 31451-3 0 9991
L22 55173 86.6237 253.6399 0013038 334.0791 25.9767 14.65785488 11200



Live tracking and technical data element details for ONEWEB-0710 (NORAD 55173). ONEWEB-0710 can be tracked NOW for your location showing map with azimuth and elevation plus other details from your city location.







IsCatalogInMostPopularTable: catalog: 55173, numindb: 11
Update: records affected: 1



GetName: 55173 ONEWEB-0710

Hit Count: updated at: Mon, 27 Mar 2023 06:21:23 GMT